[[{"header":{"parameterUnit":"m.s-1","parameterCategory":1,"la1":30.2991,"la2":30.254,"lo1":-89.0895,"lo2":-89.0444,"dy":0.0017,"dx":0.0017,"nx":28,"ny":28,"refTime":"2025-09-04T21:00:00:Z","depth":0,"parameterNumber":2,"parameterNumberName":"U-component_of_WINDS"},"data":[0,0,0,0,0,0,0,0,0,0,0,0,0,0,0,0,0,0,0,0,0,0,0,0,0,0,0,0,0,0,0,0,0,0,0,0,0,0,0,0,0,0,0,0,0,0,0,0,0,0,0,0,0,0,0,0,0,0,-0.224,-0.2241,0,-0.2279,-0.2279,-0.228,-0.2279,-0.2279,-0.2278,-0.2278,-0.232,-0.2321,-0.2323,0,0,0,0,0,0,0,0,0,0,0,0,0,-0.2168,-0.217,-0.224,-0.2241,-0.2241,-0.2279,-0.2279,-0.228,-0.2279,-0.2279,-0.2278,-0.2278,-0.2319,-0.2321,-0.2323,0,0,0,0,0,0,0,0,0,0,0,0,0,-0.2203,-0.217,-0.224,-0.2245,-0.2246,-0.2279,-0.2279,-0.228,-0.228,-0.2279,-0.2278,-0.2277,-0.2318,-0.2321,-0.2323,-0.2353,0,0,-0.233,-0.2331,0,0,0,0,0,0,0,0,-0.2201,-0.2205,-0.2244,-0.2245,-0.2246,-0.2273,-0.2269,-0.2305,-0.228,-0.2267,-0.2278,-0.2277,-0.2305,-0.2308,-0.2317,-0.2355,-0.2357,-0.2331,-0.2332,-0.2333,-0.2334,0,0,0,0,0,0,0,-0.2198,-0.2204,-0.2256,-0.2245,-0.2246,-0.2247,-0.2251,-0.2276,-0.229,-0.2268,-0.2268,-0.2273,-0.2305,-0.2315,-0.2318,-0.2358,-0.2331,-0.2333,-0.2334,-0.2335,-0.2424,-0.2425,0,0,0,0,0,0,-0.2194,-0.2202,-0.2254,-0.2257,-0.2221,-0.2249,-0.2253,-0.2265,-0.229,-0.2293,-0.2273,-0.2272,-0.2311,-0.2316,-0.232,-0.2358,-0.2333,-0.2335,-0.2337,-0.2423,-0.2424,-0.2425,0,0,0,0,0,0,-0.2193,-0.2199,-0.2253,-0.2229,-0.2236,-0.2251,-0.2265,-0.2267,-0.2276,-0.2293,-0.2296,-0.228,-0.2311,-0.2317,-0.2345,-0.2359,-0.2336,-0.2339,-0.2422,-0.2424,-0.2425,-0.2434,0,0,0,0,0,0,-0.2191,-0.2199,-0.221,-0.2229,-0.2237,-0.2277,-0.2265,-0.2268,-0.228,-0.228,-0.2301,-0.2304,-0.2311,-0.2342,-0.2348,-0.2362,-0.234,-0.2421,-0.2423,-0.2424,-0.2433,-0.2436,-0.2438,0,0,0,0,0,-0.2188,-0.2211,-0.221,-0.2217,-0.2251,-0.2278,-0.2282,-0.2289,-0.2281,-0.2293,-0.2304,-0.2303,-0.2357,-0.2345,-0.2351,-0.2367,-0.242,-0.2422,-0.2424,-0.2431,-0.2435,-0.2438,0,0,0,0,0,0,-0.2193,-0.2214,-0.2213,-0.2243,-0.2258,-0.2277,-0.2292,-0.2293,-0.2311,-0.231,-0.2318,-0.2323,-0.2352,-0.2362,-0.2348,-0.2398,-0.2388,-0.2391,-0.2391,-0.2394,-0.2397,-0.2394,-0.2342,0,0,0,0,0,-0.2197,-0.2216,-0.2233,-0.2258,-0.2266,-0.2278,-0.2289,-0.2293,-0.231,-0.2317,-0.233,-0.2347,-0.2368,-0.2382,-0.2402,-0.2434,-0.2439,-0.2448,-0.2451,-0.2453,-0.2456,-0.2475,-0.248,-0.2432,-0.2432,-0.2432,0,0,-0.2207,-0.222,-0.2232,-0.2259,-0.2272,-0.2292,-0.2283,-0.2305,-0.232,-0.2321,-0.2349,-0.2359,-0.2379,-0.2409,-0.2424,-0.2419,-0.247,-0.2456,-0.2457,-0.2459,-0.2478,-0.2482,-0.2486,-0.2434,-0.2433,-0.2433,0,0,-0.2235,-0.2246,-0.2268,-0.2281,-0.23,-0.2308,-0.2313,-0.2333,-0.234,-0.2368,-0.2369,-0.2387,-0.2423,-0.2437,-0.2449,-0.2483,-0.2483,-0.2489,-0.2504,-0.2522,-0.2526,-0.253,-0.2543,-0.2547,-0.2492,-0.2492,-0.2492,0,-0.2244,-0.2274,-0.228,-0.2302,-0.2314,-0.2315,-0.2338,-0.235,-0.2375,-0.2384,-0.2378,-0.2423,-0.2436,-0.2471,-0.248,-0.2489,-0.2496,-0.2487,-0.2525,-0.2528,-0.2532,-0.2545,-0.2549,-0.2493,-0.2493,-0.2493,-0.2493,0,-0.2286,-0.2306,-0.2322,-0.2346,-0.236,-0.2382,-0.2392,-0.2406,-0.2409,-0.2418,-0.2447,-0.2463,-0.2487,-0.2495,-0.2498,-0.2531,-0.2527,-0.2523,-0.2513,-0.2537,-0.2549,-0.2554,-0.2494,-0.2493,-0.2493,-0.2493,0,0,-0.2318,-0.2344,-0.235,-0.2361,-0.2383,-0.2399,-0.2422,-0.2445,-0.2457,-0.2474,-0.2494,-0.2524,-0.2521,-0.2534,-0.2539,-0.2555,-0.2582,-0.2549,-0.255,-0.2556,-0.2621,-0.2625,-0.263,-0.2582,-0.2583,-0.2584,-0.2619,0,-0.2349,-0.2389,-0.2395,-0.243,-0.245,-0.2451,-0.2471,-0.2487,-0.2496,-0.2515,-0.2525,-0.2547,-0.254,-0.2548,-0.2564,-0.2576,-0.2596,-0.2573,-0.2602,-0.2603,-0.2598,-0.2636,-0.264,-0.2673,-0.2624,-0.2625,-0.2626,0,-0.239,-0.2408,-0.2445,-0.2465,-0.2473,-0.2491,-0.2513,-0.2531,-0.2549,-0.2554,-0.257,-0.2573,-0.2598,-0.2585,-0.2621,-0.2605,-0.2617,-0.2625,-0.2627,-0.263,-0.2617,-0.2642,-0.2683,-0.2689,-0.2633,-0.2632,-0.2632,0,-0.2411,-0.2445,-0.2472,-0.2481,-0.2504,-0.2517,-0.2527,-0.2544,-0.2558,-0.2577,-0.2586,-0.2608,-0.2621,-0.2638,-0.2647,-0.2637,-0.2682,-0.2671,-0.2689,-0.2688,-0.2699,-0.2698,-0.2744,-0.2705,-0.2705,-0.2705,-0.2705,0,-0.2446,-0.2469,-0.2482,-0.2498,-0.2525,-0.2532,-0.2558,-0.2568,-0.2584,-0.2603,-0.2605,-0.2624,-0.2634,-0.2655,-0.2662,-0.2691,-0.2696,-0.2702,-0.2704,-0.2703,-0.2702,-0.2711,-0.271,-0.2706,-0.2706,-0.2706,-0.2705,0,-0.2474,-0.2484,-0.2513,-0.2532,-0.2538,-0.2556,-0.2573,-0.259,-0.2599,-0.2624,-0.263,-0.2644,-0.2668,-0.2679,-0.2709,-0.2714,-0.2747,-0.2746,-0.274,-0.2741,-0.2759,-0.2758,-0.2813,-0.2822,-0.2776,-0.2777,-0.2777,0,-0.2496,-0.2514,-0.2535,-0.2548,-0.2558,-0.2579,-0.2593,-0.2601,-0.2615,-0.2638,-0.2652,-0.2676,-0.2696,-0.2734,-0.2748,-0.2771,-0.2772,-0.279,-0.2775,-0.2774,-0.2774,-0.2773,-0.2775,-0.2793,-0.2793,-0.2794,-0.2794,0,-0.2535,-0.2538,-0.2558,-0.2579,-0.2595,-0.2612,-0.2629,-0.264,-0.2651,-0.2667,-0.2691,-0.2706,-0.2737,-0.2761,-0.2785,-0.2796,-0.2798,-0.2798,-0.2804,-0.2803,-0.2799,-0.2803,-0.2749,-0.2797,-0.2797,-0.2796,-0.2796,-0.2796,-0.2562,-0.2578,-0.2595,-0.2617,-0.263,-0.2646,-0.2663,-0.2674,-0.2694,-0.2719,-0.2722,-0.2749,-0.2768,-0.28,-0.2812,-0.2834,-0.2829,-0.2837,-0.2839,-0.2842,-0.2843,-0.2795,-0.2838,-0.2838,-0.2838,-0.2838,-0.2838,0,-0.2601,-0.2612,-0.2632,-0.2655,-0.2673,-0.2671,-0.269,-0.2705,-0.2728,-0.2745,-0.2764,-0.2792,-0.2816,-0.2831,-0.2855,-0.287,-0.2871,-0.2876,-0.2876,-0.2878,-0.2845,-0.2838,-0.2875,-0.2875,-0.2875,-0.2875,-0.2875,-0.2875,-0.2624,-0.2652,-0.2657,-0.2692,-0.2703,-0.2729,-0.274,-0.2755,-0.2768,-0.28,-0.2819,-0.2829,-0.2846,-0.2871,-0.2893,-0.2897,-0.2906,-0.2912,-0.2916,-0.2884,-0.2881,-0.2877,-0.2871,-0.2913,-0.2913,-0.2948,-0.2948,-0.2948]},{"header":{"parameterUnit":"m.s-1","parameterCategory":1,"la1":30.2991,"la2":30.254,"lo1":-89.0895,"lo2":-89.0444,"dy":0.0017,"dx":0.0017,"nx":28,"ny":28,"refTime":"2025-09-04T21:00:00:Z","depth":0,"parameterNumber":3,"parameterNumberName":"V-component_of_WINDS"},"data":[0,0,0,0,0,0,0,0,0,0,0,0,0,0,0,0,0,0,0,0,0,0,0,0,0,0,0,0,0,0,0,0,0,0,0,0,0,0,0,0,0,0,0,0,0,0,0,0,0,0,0,0,0,0,0,0,0,0,1.9145,1.9145,0,1.9113,1.9113,1.9112,1.9071,1.907,1.9069,1.9069,1.9035,1.9035,1.9035,0,0,0,0,0,0,0,0,0,0,0,0,0,1.9169,1.9168,1.9145,1.9145,1.9144,1.9113,1.9113,1.9112,1.9071,1.907,1.9069,1.9068,1.9035,1.9035,1.9035,0,0,0,0,0,0,0,0,0,0,0,0,0,1.915,1.9168,1.9145,1.912,1.9117,1.9113,1.9113,1.9112,1.9071,1.907,1.9069,1.9068,1.9035,1.9035,1.9035,1.9053,0,0,1.9033,1.9033,0,0,0,0,0,0,0,0,1.9151,1.9149,1.9124,1.9122,1.9119,1.9095,1.9109,1.9092,1.9071,1.9089,1.9069,1.9068,1.9056,1.9054,1.905,1.9051,1.905,1.9033,1.9033,1.9033,1.9033,0,0,0,0,0,0,0,1.9152,1.915,1.9132,1.9124,1.9121,1.911,1.9106,1.9105,1.9078,1.9087,1.9084,1.9081,1.9054,1.905,1.9049,1.9049,1.9033,1.9033,1.9033,1.9033,1.906,1.9061,0,0,0,0,0,0,1.9157,1.9151,1.9133,1.9132,1.9133,1.911,1.9106,1.9104,1.9078,1.9073,1.9082,1.9079,1.9052,1.9049,1.9048,1.9065,1.9033,1.9033,1.9032,1.9059,1.9061,1.9062,0,0,0,0,0,0,1.9158,1.9156,1.9135,1.9141,1.9137,1.9111,1.9109,1.9104,1.91,1.9074,1.9069,1.9083,1.9051,1.9048,1.9051,1.9063,1.9032,1.9032,1.9058,1.906,1.9061,1.91,0,0,0,0,0,0,1.9159,1.9157,1.9164,1.9141,1.9137,1.914,1.9109,1.9104,1.9099,1.9095,1.9074,1.9069,1.905,1.9052,1.9051,1.9062,1.9032,1.9057,1.9059,1.9061,1.9098,1.9103,1.9108,0,0,0,0,0,1.916,1.9177,1.9164,1.9162,1.9145,1.914,1.9138,1.9115,1.91,1.9107,1.909,1.907,1.9062,1.9053,1.9051,1.9062,1.9056,1.9058,1.906,1.9096,1.9102,1.9107,0,0,0,0,0,0,1.9202,1.9173,1.9159,1.9169,1.9158,1.9133,1.9141,1.9123,1.9115,1.9112,1.9084,1.9079,1.9085,1.9074,1.9064,1.9077,1.9056,1.9058,1.9083,1.9089,1.9094,1.9096,1.9031,0,0,0,0,0,1.9212,1.9211,1.9186,1.9197,1.9192,1.9168,1.9165,1.9148,1.9135,1.9129,1.9113,1.91,1.9095,1.9092,1.9085,1.9097,1.909,1.9103,1.9108,1.9112,1.9114,1.9116,1.9121,1.9069,1.9069,1.9069,0,0,1.9233,1.9218,1.9219,1.9205,1.9194,1.9192,1.9164,1.9164,1.9162,1.9129,1.913,1.9118,1.9102,1.9109,1.9111,1.91,1.9127,1.9115,1.9118,1.9118,1.9119,1.9124,1.9128,1.907,1.907,1.907,0,0,1.9271,1.926,1.9267,1.9256,1.924,1.9223,1.9225,1.9203,1.9193,1.9194,1.9169,1.9166,1.9158,1.9147,1.914,1.9172,1.9152,1.9171,1.9195,1.9198,1.9202,1.9205,1.9214,1.9218,1.9172,1.9173,1.9173,0,1.9299,1.9297,1.9273,1.9274,1.9267,1.9238,1.9244,1.9235,1.9217,1.9213,1.9201,1.9188,1.9175,1.9178,1.9185,1.9182,1.9181,1.9172,1.9203,1.9206,1.9209,1.9218,1.9221,1.9175,1.9174,1.9174,1.9174,0,1.9331,1.933,1.9337,1.932,1.9315,1.9319,1.9294,1.9292,1.9276,1.926,1.926,1.9244,1.9232,1.9232,1.9216,1.9231,1.9225,1.9209,1.9187,1.9217,1.9224,1.9227,1.9178,1.9177,1.9176,1.9176,0,0,1.9394,1.9363,1.9366,1.9357,1.9336,1.9334,1.9335,1.9324,1.9322,1.931,1.931,1.9303,1.9287,1.9279,1.9262,1.9265,1.9288,1.9248,1.9247,1.9254,1.9301,1.9312,1.9316,1.9276,1.9276,1.9277,1.9301,0,1.9426,1.9427,1.9405,1.9412,1.9409,1.938,1.9381,1.9368,1.9353,1.9347,1.9331,1.9325,1.9306,1.9301,1.9303,1.9285,1.9297,1.9283,1.9273,1.9273,1.9276,1.932,1.9332,1.9356,1.9304,1.9305,1.9305,0,1.9463,1.9453,1.946,1.9437,1.9435,1.9436,1.9423,1.9419,1.9403,1.9391,1.9382,1.9362,1.9361,1.9341,1.9338,1.9329,1.9323,1.9314,1.9314,1.9311,1.929,1.9316,1.9364,1.9367,1.931,1.9309,1.9309,0,1.9505,1.9494,1.9496,1.9489,1.9463,1.9464,1.9453,1.9436,1.943,1.9419,1.9414,1.9403,1.9396,1.9387,1.9364,1.9353,1.9363,1.9342,1.9352,1.9352,1.9354,1.9354,1.9399,1.9354,1.9354,1.9354,1.9354,0,1.9542,1.9547,1.9514,1.9515,1.9518,1.9493,1.9497,1.9483,1.9468,1.9464,1.9439,1.9437,1.9407,1.9401,1.9383,1.9381,1.9379,1.9369,1.9363,1.937,1.9371,1.9365,1.9362,1.9355,1.9354,1.9354,1.9354,0,1.959,1.9568,1.9568,1.9543,1.9537,1.954,1.9518,1.9517,1.9501,1.9497,1.9494,1.9468,1.9459,1.9435,1.9421,1.9408,1.9411,1.9403,1.9416,1.9413,1.9423,1.9422,1.9465,1.9468,1.9422,1.9423,1.9423,0,1.9614,1.9616,1.9592,1.9588,1.9578,1.9572,1.9566,1.954,1.9534,1.9515,1.9516,1.9505,1.9495,1.9481,1.946,1.9448,1.9438,1.9454,1.9436,1.9441,1.9435,1.9435,1.9434,1.9457,1.9458,1.9458,1.9459,0,1.9658,1.9647,1.9639,1.9627,1.962,1.9609,1.9597,1.9595,1.9566,1.956,1.9551,1.9543,1.9527,1.9515,1.95,1.9487,1.9467,1.9465,1.9466,1.9472,1.9479,1.9473,1.9425,1.9464,1.9463,1.9463,1.9463,1.9462,1.9693,1.9693,1.9675,1.9667,1.9655,1.9643,1.9641,1.9624,1.9615,1.96,1.9586,1.9577,1.9559,1.9536,1.9524,1.9516,1.9506,1.9509,1.9509,1.951,1.9511,1.9481,1.9514,1.9513,1.9513,1.9513,1.9513,0,1.9734,1.9721,1.9713,1.9697,1.9689,1.9673,1.9658,1.9652,1.9645,1.963,1.962,1.9608,1.9596,1.9574,1.956,1.9558,1.9548,1.9555,1.9554,1.9551,1.9522,1.9522,1.9563,1.9563,1.9563,1.9563,1.9563,1.9563,1.9754,1.9753,1.974,1.9732,1.9718,1.971,1.9703,1.9691,1.9679,1.9667,1.9657,1.9643,1.9624,1.9608,1.9596,1.959,1.9585,1.9594,1.9585,1.9558,1.9553,1.9549,1.9548,1.9594,1.9594,1.9613,1.9614,1.9614]}]]